Wind_Speed
9 3 3 5 4 6 6 5 7 6 5 5 5 5 6 7 7 7 8 6 13 12 12 17 12 11 15 15 17 26 30 26 24 24 28 33 33 34 36 35 35 36 37 37 38 38 35 38 41 39 39 38 34 32 30 29 31 31 29 28 29 30 30 28 28 27 27 28 27 29 30 28 23 19 17 16 16 16 15 14 14 14 12 12 12 11
8 5 5 7 6 7 7 6 8 8 8 7 6 6 7 7 8 10 10 8 9 11 12 16 14 13 17 16 17 24 24 21 26 27 28 33 33 34 37 37 37 36 36 36 38 39 36 36 41 41 41 40 37 34 33 33 33 32 31 30 30 32 32 30 30 30 30 29 29 30 31 29 25 20 19 18 16 16 13 12 12 11 12 12 12 11
5 5 6 8 7 8 7 7 8 9 9 7 6 5 7 6 7 10 9 6 4 6 8 16 16 14 17 17 17 23 23 24 32 32 30 34 32 33 37 38 38 37 38 38 39 41 37 35 41 44 43 42 38 35 36 35 34 34 33 32 31 32 33 31 31 31 30 30 29 28 29 30 26 20 18 18 16 14 12 11 10 9 11 12 12 12
4 5 10 11 9 8 9 9 9 8 7 6 5 5 7 7 5 6 4 3 4 3 8 15 11 6 9 11 12 21 25 24 30 32 31 34 35 36 39 41 41 40 41 42 41 41 39 36 40 45 45 43 39 37 38 37 36 37 35 34 32 31 33 32 32 32 30 29 28 25 27 29 25 20 18 17 15 13 11 11 11 10 12 12 13 13
5 8 13 12 9 9 9 9 8 6 5 5 7 7 7 9 8 7 5 6 7 5 7 11 5 2 5 10 10 14 18 17 24 28 26 31 34 35 38 39 42 44 43 45 44 43 42 40 41 45 46 44 41 40 40 39 39 39 37 36 33 31 32 33 32 32 31 31 28 25 27 29 25 22 22 21 19 16 14 14 13 12 13 13 13 14
7 13 13 9 8 10 8 8 8 7 5 5 7 9 11 11 12 9 7 5 5 5 5 9 5 2 4 11 11 10 12 12 19 23 23 29 31 31 34 36 40 44 44 46 47 45 44 43 42 44 46 45 43 42 41 40 40 39 38 37 34 31 32 33 33 32 32 32 30 28 31 31 28 26 26 25 23 20 18 16 14 13 14 14 14 14
6 14 11 8 10 11 9 8 8 7 5 5 6 8 10 10 10 9 6 3 2 2 4 6 5 2 3 8 11 11 13 13 14 17 21 29 30 29 33 36 39 42 43 45 47 44 45 45 44 44 46 46 45 43 41 41 40 39 39 37 35 33 32 33 34 34 33 33 31 30 32 33 31 29 28 26 23 21 19 16 14 14 15 15 15 14
5 11 10 9 10 9 8 7 8 9 6 5 7 7 7 6 7 7 4 3 3 3 1 2 6 4 3 9 12 11 12 11 12 14 18 25 31 32 34 37 40 42 44 45 47 46 45 47 47 46 47 47 46 44 43 43 41 40 40 38 37 35 34 33 34 35 35 34 32 31 33 34 32 30 28 27 25 22 19 18 16 15 16 16 16 15
1 3 6 7 7 6 7 9 11 9 6 6 9 7 5 5 6 5 3 3 2 0 3 3 5 4 3 7 9 10 11 11 14 16 16 23 31 34 35 37 39 42 44 45 47 48 47 47 49 48 47 47 46 45 45 44 42 40 40 39 38 37 35 34 34 35 35 35 33 32 34 36 33 30 29 28 26 24 21 19 17 17 18 18 17 16
2 4 6 4 5 5 7 12 13 8 6 7 9 8 4 2 2 2 3 2 3 2 3 4 2 5 3 4 6 8 10 12 14 15 17 26 34 36 36 38 39 40 43 44 46 48 48 47 48 48 47 47 47 46 46 45 42 41 41 41 40 39 38 36 35 35 36 36 34 32 34 37 35 31 31 30 27 25 23 21 18 18 19 19 18 17
5 10 9 2 4 5 5 9 12 12 9 5 4 6 3 3 3 3 3 4 4 2 5 5 2 6 1 4 7 9 13 16 15 13 16 22 29 33 35 37 39 40 42 43 43 45 46 46 47 47 46 46 47 47 47 46 44 41 42 42 42 40 39 38 36 36 36 36 36 34 33 35 35 33 32 32 29 27 26 23 20 19 19 19 18 18
4 5 5 4 6 4 1 1 3 8 7 3 2 1 1 3 3 4 5 4 3 4 6 3 3 6 2 4 8 13 18 20 17 15 16 18 25 33 37 39 41 42 42 42 42 43 45 45 46 47 48 47 47 48 49 48 46 44 43 43 43 42 41 40 38 37 37 37 37 35 33 34 35 33 33 32 31 29 28 24 22 21 20 19 19 18
5 2 3 6 6 3 4 3 5 3 3 5 3 4 3 2 2 1 3 1 2 5 7 2 5 4 4 5 9 16 17 17 17 18 19 23 29 35 38 40 42 42 43 43 43 44 45 46 47 48 49 49 49 50 50 49 48 46 44 43 44 44 43 42 40 39 39 39 38 37 35 34 34 33 32 31 30 30 28 25 24 23 22 21 21 20
4 3 7 5 4 10 7 3 0 3 1 4 4 4 3 2 2 1 2 1 2 4 7 4 4 0 4 4 10 17 17 19 21 23 25 30 34 38 42 42 41 41 43 45 44 44 46 47 47 49 50 50 50 51 51 51 50 49 47 45 44 45 45 44 42 41 40 41 41 38 37 36 35 34 33 31 30 30 29 26 25 24 23 23 22 21
2 2 7 5 4 11 9 2 2 3 1 1 4 6 4 4 4 3 2 2 2 3 6 5 3 2 3 5 8 15 21 26 28 31 31 33 36 39 41 40 38 39 42 44 45 46 47 48 48 48 50 51 51 52 52 52 51 50 49 46 45 46 46 46 44 43 42 43 42 40 38 37 36 35 34 33 31 31 31 28 26 25 24 23 22 20
1 3 4 5 5 5 9 9 5 2 2 4 1 6 3 4 5 2 3 4 3 1 3 3 1 4 4 6 6 7 14 21 29 35 33 32 35 33 33 35 37 39 41 43 46 48 49 49 48 48 50 52 52 52 52 53 53 52 50 48 46 46 47 47 47 45 43 44 44 43 40 39 38 37 36 35 33 32 31 29 27 25 23 22 21 20
2 3 6 9 5 7 14 14 6 3 1 3 3 2 5 4 6 3 2 1 4 3 3 1 1 4 4 6 8 7 10 11 16 24 27 31 34 31 31 36 39 40 43 45 47 51 52 52 50 49 50 52 52 52 53 53 54 53 51 49 47 46 47 48 48 47 45 44 45 45 43 41 40 40 39 37 35 33 32 30 28 25 24 22 21 20
1 3 6 7 5 12 23 16 5 10 9 3 1 4 5 1 4 4 0 1 3 3 3 1 2 3 4 4 7 8 9 9 5 11 19 24 27 29 32 38 42 43 45 47 49 50 51 52 52 50 50 52 53 53 54 54 53 53 51 49 48 48 48 49 49 49 47 46 46 46 45 44 43 42 41 39 36 34 33 32 30 28 26 24 22 21
2 2 5 6 7 11 19 13 6 13 15 6 2 6 1 3 1 1 2 2 2 2 3 3 1 2 2 2 9 13 12 13 13 8 15 18 20 27 33 37 42 43 42 42 44 45 46 50 52 51 50 51 53 53 54 53 53 52 51 50 48 47 47 48 48 49 49 48 47 47 46 45 44 44 43 41 38 36 36 34 33 31 29 26 24 23
3 3 4 5 8 6 8 7 4 9 13 9 6 6 3 2 2 0 2 4 3 3 2 3 2 2 2 4 9 14 14 15 17 13 9 17 22 29 34 38 40 41 40 41 41 43 46 49 51 52 51 51 53 53 53 53 52 51 51 50 49 47 46 47 48 49 50 50 49 48 47 47 46 45 45 44 41 40 38 37 36 34 32 30 28 26
4 4 3 6 7 4 3 5 4 4 7 7 8 7 6 3 0 0 1 2 3 3 3 2 1 2 3 4 7 13 15 14 17 18 10 15 28 34 36 38 41 41 42 42 42 44 46 48 50 51 51 50 51 52 52 52 51 51 51 50 50 49 48 48 48 49 50 50 50 50 49 48 47 46 46 45 44 42 41 40 39 37 35 33 31 29
3 2 2 5 5 2 2 2 5 5 4 2 6 6 6 5 3 2 3 3 1 2 3 5 3 2 4 5 5 10 12 14 18 21 17 10 15 31 38 40 42 43 43 44 44 46 46 47 49 50 50 49 49 50 50 50 51 51 51 51 50 50 50 49 49 49 50 50 51 51 51 50 48 47 46 46 46 44 43 42 41 40 38 36 35 33
4 2 2 4 4 4 5 5 2 5 3 7 9 7 6 6 5 2 2 4 4 2 2 1 3 3 3 6 6 8 12 17 24 25 23 26 21 5 24 36 41 43 45 46 46 47 48 47 48 48 49 49 48 49 50 50 51 51 51 51 50 50 50 50 49 48 49 49 50 51 51 51 50 49 48 47 47 46 45 44 42 41 40 39 37 36
7 2 2 5 5 5 6 3 4 8 8 7 7 8 7 6 6 3 2 1 2 2 3 2 1 2 5 9 8 11 16 20 27 31 29 31 35 29 11 14 32 40 43 44 46 47 46 45 45 45 46 46 47 48 49 50 51 51 51 50 50 51 50 50 49 49 49 49 48 49 50 51 52 51 50 49 48 47 46 45 44 43 42 41 40 39
5 2 3 4 5 6 5 4 4 6 7 4 3 6 8 8 10 7 3 3 2 1 3 0 2 3 6 9 10 12 15 17 23 31 32 32 35 37 35 17 8 24 30 35 41 44 42 41 42 44 46 47 47 47 49 50 50 50 50 50 50 50 50 50 50 49 50 49 48 48 49 50 52 52 53 51 50 48 47 47 46 45 44 43 42 41
3 2 2 3 1 2 3 3 4 5 6 3 2 5 8 10 11 7 4 4 2 2 4 1 3 4 8 10 12 11 11 13 19 26 30 32 35 36 39 36 22 8 5 13 21 28 33 37 41 44 47 48 48 48 48 50 51 50 50 50 50 49 49 49 50 50 50 50 50 49 48 49 51 52 53 53 51 50 48 48 48 48 46 45 44 43
2 2 2 3 3 3 4 4 4 6 7 8 8 7 6 7 8 5 2 2 2 4 5 3 1 7 11 11 12 12 11 10 12 20 26 29 33 35 36 36 34 30 23 15 9 7 15 23 31 38 44 48 49 50 49 50 51 51 51 51 49 49 48 48 49 49 49 49 50 50 49 49 49 50 52 53 53 51 50 49 50 50 49 47 46 45
3 2 3 2 1 3 3 5 7 8 8 10 13 11 7 6 6 5 3 4 5 5 5 5 3 8 10 9 10 10 10 8 8 14 21 25 28 31 34 35 36 37 35 30 24 17 11 6 9 20 31 38 42 46 49 49 51 52 52 51 50 48 48 48 48 48 49 49 50 50 50 50 48 47 49 51 52 52 51 51 51 51 51 50 49 47
3 0 2 2 4 5 5 7 9 9 9 8 11 13 11 7 5 3 4 7 7 4 6 7 6 6 6 7 8 9 9 9 9 12 18 25 26 27 33 36 35 36 36 35 32 28 23 18 12 6 10 20 27 33 38 41 45 47 49 49 49 48 47 47 47 48 48 49 50 51 50 49 48 47 47 48 50 51 52 52 52 51 52 52 51 50
3 1 2 3 5 5 5 6 8 9 10 9 9 12 13 11 7 5 5 8 9 8 8 7 6 4 3 5 6 8 12 12 13 16 20 25 25 25 30 33 32 33 34 34 32 30 28 24 20 17 11 9 13 19 24 28 33 38 42 44 44 45 45 45 46 47 48 49 50 50 49 49 48 47 47 47 48 50 51 51 51 52 52 52 52 51
3 1 3 3 4 5 5 5 7 7 9 10 10 9 11 13 11 6 5 6 6 8 8 7 4 2 4 8 9 11 15 16 17 19 20 22 22 23 26 28 29 30 32 33 33 31 30 27 23 20 17 12 9 9 15 21 25 30 35 38 40 40 40 41 43 45 46 48 48 48 48 48 48 47 46 46 47 48 50 50 51 51 52 52 52 52
3 0 2 3 1 4 4 6 8 8 9 11 10 7 8 10 9 6 3 2 3 4 5 5 3 2 5 10 11 12 15 16 17 18 20 21 22 23 25 26 27 28 30 32 34 34 33 31 27 23 19 14 12 9 7 13 19 24 30 35 38 38 38 39 42 44 45 47 47 47 47 47 47 46 46 45 45 46 47 49 50 51 51 52 52 51
3 2 1 1 1 2 2 4 7 7 7 7 5 3 4 4 5 5 3 5 5 2 0 1 1 3 6 9 9 10 12 12 13 17 21 23 23 24 25 26 25 25 27 30 33 35 35 33 30 26 21 16 12 11 8 4 10 17 24 30 34 38 41 43 44 45 46 46 46 46 46 46 46 45 45 44 43 43 44 47 49 50 51 51 51 51
2 3 2 2 2 1 0 3 5 4 4 5 2 2 3 3 6 5 3 5 6 4 2 1 3 5 7 7 7 8 9 9 13 17 20 22 25 25 24 25 24 24 26 28 31 34 34 33 30 27 23 18 14 10 8 6 6 11 19 26 30 35 41 45 46 47 46 45 44 44 43 44 44 45 45 44 43 42 42 44 46 48 49 50 50 50
0 1 2 2 2 2 2 4 3 3 5 4 1 3 3 4 5 4 4 5 6 6 5 5 6 7 9 11 10 10 10 7 11 19 22 21 22 24 24 25 25 24 26 28 30 31 31 31 30 28 25 21 19 14 7 4 7 9 16 23 28 32 38 43 45 47 48 47 46 46 45 45 45 45 45 44 44 43 43 42 44 46 48 49 50 51
1 1 1 1 2 1 2 3 2 5 5 7 5 2 3 4 4 3 3 3 4 5 4 4 5 8 12 17 16 16 17 9 3 14 25 24 22 23 24 24 25 26 26 27 28 29 30 30 29 29 28 25 24 20 10 2 5 8 13 20 25 27 31 37 42 45 46 48 49 49 48 48 48 47 46 45 45 45 45 44 43 44 46 47 48 49
3 2 1 1 2 2 3 3 4 6 8 8 5 1 3 4 4 2 0 1 2 5 6 4 5 8 12 17 21 24 26 13 5 4 21 27 24 23 23 23 25 27 28 27 27 28 29 29 28 28 28 27 26 24 15 4 2 5 10 17 22 23 23 29 37 42 45 46 47 48 49 49 49 48 47 47 46 47 47 46 44 43 44 46 47 48
1 3 2 2 2 2 3 3 3 5 6 4 2 2 6 8 8 4 2 2 1 7 9 6 5 8 10 14 19 23 21 10 4 2 19 28 27 25 25 25 26 28 27 26 27 28 28 28 28 28 28 26 25 24 20 10 5 8 9 13 19 21 20 22 29 35 41 45 48 48 48 48 48 47 47 47 47 48 48 47 45 44 43 44 46 48
3 1 2 3 1 1 3 3 4 6 5 3 2 3 8 12 10 5 2 1 1 7 11 8 7 10 10 11 16 16 11 4 2 7 21 29 28 26 25 25 26 28 27 25 24 26 27 28 28 27 27 26 24 24 23 17 11 11 13 13 16 20 21 22 24 26 30 36 43 47 47 46 46 46 47 48 48 48 48 47 46 44 43 43 45 47
4 3 3 2 3 4 4 4 4 4 3 1 2 6 10 10 7 2 1 2 2 8 11 10 10 12 12 13 12 8 3 3 7 16 26 30 27 25 25 25 25 27 27 25 23 23 25 27 27 27 27 28 27 25 25 22 19 16 16 16 18 21 22 23 24 24 24 25 30 37 42 44 45 45 47 49 49 48 48 47 46 45 44 43 44 45
3 2 1 2 4 6 6 5 4 4 2 1 6 11 11 6 3 1 3 2 5 8 9 9 11 12 13 15 12 6 6 10 17 24 29 29 26 25 25 24 24 24 25 25 24 22 23 24 25 26 26 26 27 27 26 25 24 23 21 19 21 23 24 25 26 26 25 24 24 28 34 38 42 45 47 48 48 47 47 48 48 47 46 45 44 45
1 1 1 1 1 4 4 4 5 4 0 4 11 12 7 2 2 2 3 6 9 10 9 9 10 11 14 17 16 14 16 19 22 27 28 28 27 26 25 25 25 24 24 25 24 22 22 23 23 25 24 24 26 28 28 28 27 27 26 23 21 23 25 27 28 28 27 26 26 27 29 32 37 43 46 47 47 46 47 48 49 48 47 45 45 45
2 1 1 1 1 2 2 3 4 3 2 8 10 6 2 0 2 6 10 10 9 10 10 11 11 12 15 18 20 21 22 22 24 26 28 28 27 26 27 27 26 24 25 27 26 24 22 22 23 23 23 24 25 26 28 29 29 29 29 27 24 23 25 28 29 29 29 29 29 29 29 30 32 38 44 46 46 46 47 48 49 50 48 47 46 45
3 3 1 2 2 2 2 3 3 3 4 7 6 3 3 4 5 8 11 11 11 12 12 13 14 13 15 19 22 24 25 25 25 26 27 29 28 27 28 29 27 25 25 27 28 27 24 23 23 23 22 22 23 24 26 29 31 32 31 29 27 25 25 27 29 30 31 31 31 31 31 31 30 33 40 45 46 46 47 49 50 50 49 48 47 46
5 5 3 2 3 3 4 6 5 5 7 7 6 8 9 7 6 8 10 12 14 15 14 16 17 16 17 20 23 24 25 26 26 26 27 28 29 29 30 30 28 26 25 26 28 28 26 24 23 23 22 21 21 22 25 27 30 33 33 32 30 28 26 26 27 29 31 32 33 32 32 33 32 32 36 42 47 48 48 49 50 50 49 49 48 47
7 7 4 2 2 4 8 13 13 9 8 7 7 7 7 7 9 11 13 14 16 17 18 19 19 19 18 19 21 24 24 25 26 27 27 28 30 30 31 31 30 28 27 27 27 28 27 26 24 23 23 21 21 22 24 26 28 31 32 32 30 28 26 25 25 27 30 32 33 34 33 33 33 33 34 39 45 48 48 49 50 49 49 49 49 48
5 8 4 2 1 2 4 7 7 4 7 12 10 7 6 9 12 13 15 18 20 20 20 19 19 19 20 19 21 23 25 25 26 29 30 29 30 30 30 31 31 31 29 27 26 27 28 28 26 25 24 22 22 22 23 25 27 28 29 29 27 25 24 23 24 26 29 30 32 34 35 34 34 34 35 38 43 46 47 48 49 49 50 50 50 50
5 7 4 3 3 3 5 8 8 8 13 13 8 6 9 13 16 18 19 20 21 21 20 20 19 20 20 21 22 24 27 27 26 29 31 31 30 31 31 31 32 33 31 28 26 26 28 28 27 26 25 23 22 22 23 25 26 27 27 28 26 24 22 21 23 26 28 28 30 32 35 36 35 34 36 39 42 45 47 47 48 49 50 51 51 51
8 6 4 3 3 4 7 9 9 10 12 9 8 9 15 17 18 21 21 21 20 20 21 22 22 22 22 22 23 25 28 29 27 27 30 32 32 32 32 31 32 32 31 29 26 25 27 28 27 25 25 23 22 22 23 24 26 26 26 27 27 25 22 21 23 25 26 27 28 30 33 36 37 36 36 39 43 45 47 47 48 49 50 51 51 50
8 3 3 3 1 4 5 5 5 5 7 10 13 16 18 18 19 20 20 20 20 21 23 25 26 25 24 24 24 25 28 30 28 28 30 33 34 33 32 30 31 31 30 27 25 24 26 27 26 25 25 22 20 21 22 23 25 26 26 26 27 26 24 23 24 25 25 25 26 27 30 33 36 36 36 39 43 45 47 47 48 48 49 49 49 49
12 8 7 7 4 6 9 9 9 8 11 15 17 18 18 18 18 18 19 21 22 24 26 26 27 27 26 25 25 25 28 30 29 29 31 34 34 33 31 30 29 30 29 26 23 23 25 26 26 25 24 22 20 21 22 23 24 25 25 26 26 26 26 25 25 25 24 22 22 25 27 28 30 32 36 40 44 46 48 49 49 49 49 49 49 49
Wind_Direction
190 182 213 210 217 210 223 200 197 230 241 269 281 273 277 271 273 256 259 234 174 176 196 194 189 174 176 178 176 178 178 179 180 177 177 179 180 181 185 187 188 189 189 189 190 190 190 192 193 193 193 194 194 194 195 194 195 198 197 192 194 193 192 191 188 185 185 185 184 180 178 180 186 188 193 203 210 208 208 209 204 202 200 198 196 193
185 195 223 215 219 213 222 212 210 232 237 252 258 266 276 259 273 268 263 268 197 188 201 189 181 179 179 178 177 178 179 183 183 181 180 181 181 181 184 188 189 190 190 188 189 190 191 192 192 193 192 192 193 193 193 194 196 198 198 197 197 195 194 193 190 189 189 190 188 185 182 182 185 189 197 207 201 185 181 188 194 196 197 197 195 193
188 219 225 216 221 218 230 226 219 229 229 239 239 252 271 255 279 276 261 272 222 202 195 181 180 185 181 177 179 181 184 188 186 184 184 182 181 182 184 187 188 189 190 190 189 191 194 194 191 192 191 192 193 192 191 194 196 198 200 200 200 198 196 194 193 194 194 194 192 189 187 186 187 188 195 204 194 178 178 188 196 201 198 196 194 192
189 234 221 213 216 213 228 231 223 230 227 229 226 235 258 252 267 273 270 312 312 282 182 174 175 169 165 172 188 191 190 190 187 187 187 185 185 185 185 186 187 187 189 192 191 192 194 193 190 190 190 191 193 192 191 193 195 198 201 202 202 202 200 197 195 197 197 196 195 192 189 189 189 185 189 198 195 191 195 198 204 207 199 194 191 189
203 234 220 210 219 216 223 234 226 228 237 230 219 220 245 255 244 239 270 310 334 346 144 140 110 68 154 177 196 196 194 194 189 187 190 193 192 190 188 187 188 189 190 191 191 192 194 191 190 190 190 191 193 192 192 194 196 198 201 202 203 205 203 200 198 197 197 196 196 191 187 190 188 185 192 199 201 202 204 206 207 203 196 193 191 189
225 237 223 198 217 225 223 236 225 209 229 248 231 221 230 250 251 247 275 311 15 33 121 113 80 309 208 195 197 187 190 194 188 187 191 195 196 195 194 191 189 190 192 191 190 191 192 191 190 190 191 192 193 195 194 195 198 200 201 202 204 206 205 202 200 198 197 197 196 189 187 188 185 186 194 199 200 201 203 207 206 198 196 195 193 191
222 232 223 190 205 218 222 237 230 200 203 247 240 225 227 245 261 263 288 311 81 131 182 135 130 222 241 219 211 190 190 192 186 189 193 195 198 197 196 194 191 190 190 191 191 190 191 191 191 191 193 194 195 196 196 196 199 201 201 202 204 207 206 204 201 198 197 197 197 191 188 188 186 187 194 197 200 201 202 206 206 202 200 198 197 195
216 224 226 207 200 204 214 233 229 195 178 240 246 236 243 261 277 279 289 277 222 201 265 104 124 142 209 218 213 195 192 195 191 194 195 195 199 199 197 195 193 191 190 191 191 191 191 193 194 194 194 196 196 196 196 196 199 201 201 202 205 208 208 206 203 201 199 199 199 194 189 188 189 190 194 197 200 203 205 207 208 205 201 199 200 200
255 205 228 218 206 201 204 221 225 202 179 233 249 244 243 254 274 304 327 297 275 4 320 333 104 115 232 220 198 188 192 201 202 200 198 198 199 200 199 196 195 194 193 193 193 193 193 195 196 196 196 196 196 196 197 197 199 202 202 203 206 208 210 209 206 203 202 202 202 197 191 190 192 193 196 200 201 203 207 209 208 203 198 199 201 202
287 285 271 206 192 202 202 216 216 202 203 227 244 248 248 265 290 15 51 23 20 59 251 274 122 122 257 235 170 179 198 206 207 202 203 203 201 200 200 199 197 195 194 194 194 194 194 195 195 196 197 197 197 197 198 199 200 202 202 204 206 208 210 211 209 206 204 202 203 201 195 193 195 194 196 202 203 203 207 208 206 200 197 199 200 200
253 281 282 217 207 215 203 217 204 193 209 219 254 261 284 4 22 46 48 66 44 322 245 249 169 124 206 242 180 183 201 203 203 204 206 205 202 201 201 201 199 196 195 194 194 195 195 195 196 196 197 197 198 198 197 198 201 202 203 205 207 209 211 213 211 208 205 202 202 204 199 197 198 197 197 202 204 204 206 206 202 197 197 202 202 200
302 302 284 265 268 252 130 304 220 189 184 132 66 337 1 337 4 26 357 39 74 278 253 250 74 110 159 241 199 198 205 203 200 202 201 200 201 201 202 203 201 198 196 194 193 193 192 194 196 196 197 197 197 197 197 198 201 203 205 206 208 209 211 213 213 210 206 203 203 205 204 200 200 199 198 202 206 207 208 205 200 195 196 203 205 203
329 296 289 273 273 333 59 32 341 334 93 98 83 66 79 344 359 22 315 328 189 258 259 289 50 107 214 237 204 206 212 209 209 208 202 199 200 200 202 203 202 199 197 196 195 193 192 192 194 196 197 197 197 197 198 198 200 203 205 207 208 210 211 214 215 213 208 205 204 205 206 204 201 199 200 203 207 210 210 206 199 196 196 200 205 204
333 324 350 343 326 351 9 114 300 306 45 113 135 105 112 113 71 220 255 295 236 268 279 304 42 105 270 264 204 203 211 214 215 216 211 207 204 201 202 202 201 200 198 197 196 195 195 194 194 197 197 198 198 199 199 199 200 202 204 207 210 211 213 215 216 215 211 207 206 206 207 207 204 202 204 206 208 210 211 208 203 200 199 200 205 205
359 327 1 10 320 338 356 46 199 197 127 251 177 133 128 146 138 190 191 165 220 277 304 333 25 196 243 258 210 197 206 210 213 219 216 213 212 205 202 201 199 201 200 198 198 197 197 196 195 196 197 198 199 199 200 200 201 202 204 207 210 212 213 215 217 217 214 209 207 207 208 209 208 207 207 209 211 212 210 209 208 205 203 203 206 207
19 243 304 325 293 342 6 340 318 95 79 298 185 111 140 184 156 163 191 175 151 41 318 336 279 220 221 265 267 220 215 209 208 215 214 212 214 206 200 199 198 201 201 199 199 199 200 199 197 197 197 198 199 199 200 200 201 203 205 208 211 213 214 215 218 219 217 213 209 209 209 209 211 211 210 210 212 213 211 210 211 210 208 206 205 205
16 268 298 326 331 17 0 330 317 41 320 275 45 114 218 191 133 128 272 223 100 92 272 254 229 288 311 295 292 272 253 233 207 210 211 209 208 198 194 198 198 200 201 200 200 201 201 200 199 199 198 198 199 199 201 202 203 205 206 209 211 213 214 216 218 220 219 216 212 211 211 211 211 212 214 214 213 213 213 213 214 214 213 210 205 203
15 273 299 349 1 351 348 343 14 32 30 84 31 280 265 350 99 116 27 328 77 110 266 281 186 286 313 289 313 323 298 296 272 223 216 210 200 193 195 198 199 200 201 202 202 201 201 201 201 201 201 200 200 201 203 204 205 206 208 211 211 212 214 216 218 220 220 218 214 212 212 212 213 214 217 218 217 214 214 215 216 217 218 216 212 208
6 296 295 16 24 338 347 7 39 10 16 53 295 287 324 57 49 69 134 185 110 140 257 298 258 284 321 307 344 356 348 337 335 286 230 212 197 193 197 198 200 201 201 201 201 201 201 202 202 202 202 202 202 203 204 204 205 207 209 212 213 214 216 217 218 219 220 219 217 214 213 213 214 215 218 221 220 218 217 218 219 220 222 222 220 218
17 37 279 352 17 338 347 26 37 345 351 9 0 343 21 108 165 210 188 168 137 167 206 302 326 21 340 323 356 2 354 347 348 335 259 216 201 197 198 199 199 199 199 200 199 200 201 202 202 202 201 202 203 204 205 205 206 208 209 211 213 215 217 218 218 219 220 220 218 216 215 215 215 216 218 221 222 221 221 222 223 223 225 225 225 224
24 48 290 315 354 13 47 24 15 345 332 351 14 11 2 352 155 330 279 161 132 153 165 224 260 36 336 317 7 9 358 357 358 352 321 228 207 201 199 199 198 197 197 199 199 200 201 201 201 202 202 203 203 203 204 205 207 208 210 211 212 214 215 217 218 219 220 221 220 218 217 216 216 217 218 221 224 224 224 225 226 227 228 228 228 228
15 42 336 321 336 24 88 327 318 313 296 22 40 21 5 358 16 36 322 317 58 132 172 192 185 59 341 328 18 18 4 3 7 4 352 312 231 208 202 199 198 198 198 198 198 200 202 202 202 202 203 203 203 204 204 205 207 209 210 212 213 213 214 216 218 219 220 221 222 221 219 218 217 218 219 221 224 226 226 227 228 229 230 231 231 231
358 54 358 307 273 265 258 247 313 4 37 74 53 19 6 14 25 37 301 319 343 331 292 219 147 159 306 335 15 28 18 11 13 14 6 0 359 269 209 204 199 197 199 199 199 201 203 203 203 203 203 204 204 205 205 206 208 209 211 213 213 213 215 217 218 220 221 221 223 224 222 221 219 219 220 221 223 226 227 228 229 231 232 233 234 235
352 38 356 312 285 278 266 225 86 59 58 61 36 10 8 6 355 322 257 319 359 354 358 347 222 227 322 342 0 23 26 21 18 17 13 10 13 16 9 216 206 202 201 199 199 202 203 203 203 203 204 204 204 205 205 206 207 209 211 212 214 215 216 217 218 220 220 221 223 225 225 224 223 221 221 222 224 226 227 229 231 232 233 234 235 236
350 32 36 2 331 327 341 10 27 33 39 42 9 1 355 349 354 343 324 35 45 40 43 5 233 280 321 337 352 15 28 27 22 18 17 17 15 16 23 26 218 211 208 204 201 202 201 200 202 204 205 205 205 206 207 207 208 209 211 213 214 216 216 217 217 218 220 221 222 223 225 226 226 225 224 224 225 227 228 229 231 232 234 235 236 237
38 45 69 84 57 304 323 342 325 326 346 347 328 0 349 347 4 359 334 20 35 344 0 284 227 303 325 342 352 6 27 31 25 20 18 21 19 16 22 28 34 60 170 203 206 206 203 201 203 205 206 207 207 208 208 209 209 210 211 213 214 216 216 216 217 217 219 221 221 223 225 227 228 228 227 227 227 228 229 230 231 233 234 236 237 238
69 45 50 116 158 206 232 259 290 310 320 316 320 346 355 343 356 7 352 348 322 333 328 250 214 344 335 343 349 357 20 31 27 22 18 19 20 19 20 22 28 41 56 74 100 169 197 203 208 210 209 209 208 209 210 211 211 210 211 212 214 215 216 216 217 217 219 220 221 223 225 227 228 230 230 230 230 230 230 231 232 233 235 236 237 238
83 25 359 17 293 260 268 296 316 322 317 316 318 326 343 343 347 8 350 302 315 342 298 266 5 354 327 337 350 356 17 28 31 28 22 20 20 20 21 20 20 27 39 53 62 67 81 122 206 217 216 214 212 212 212 212 212 211 212 212 212 214 216 216 217 217 219 220 221 224 226 228 229 231 232 233 232 232 232 233 234 234 235 236 237 238
102 329 319 12 336 314 326 330 329 323 312 312 314 313 321 328 327 332 309 295 306 299 260 279 330 333 320 345 355 3 22 28 34 37 29 25 22 21 23 22 17 18 24 33 40 47 55 62 69 101 200 215 217 218 217 216 215 214 213 213 212 213 215 216 217 217 218 220 222 225 227 228 230 231 233 234 234 234 235 235 235 236 236 237 238 239
97 301 317 3 333 316 333 326 315 315 311 310 311 308 312 313 304 295 288 289 291 274 267 299 325 325 357 350 339 14 36 38 38 39 37 31 23 22 28 25 17 14 15 20 26 31 38 45 54 65 93 157 195 214 219 222 222 219 217 215 213 213 215 216 216 217 218 220 223 225 227 228 229 231 232 234 235 237 237 236 236 237 237 238 238 239
101 281 309 15 349 313 323 324 313 314 311 310 313 312 310 307 304 295 274 276 288 288 302 337 345 320 356 346 343 19 39 44 41 36 38 37 28 24 29 27 20 14 10 12 16 19 24 32 38 45 59 84 112 166 200 214 222 223 221 218 215 214 214 215 216 217 218 221 223 224 226 228 230 231 233 235 237 238 238 238 237 237 238 238 238 240
117 217 322 61 31 297 318 339 323 318 318 309 304 304 299 296 299 298 288 322 331 299 315 357 3 301 331 342 353 17 30 40 43 37 36 36 31 30 30 25 21 15 9 9 10 10 14 20 25 29 35 50 67 88 152 196 210 217 221 220 217 215 214 215 217 218 219 221 222 224 226 228 230 231 233 235 237 238 239 238 237 237 237 237 237 239
144 142 74 111 152 265 322 335 319 327 330 298 277 303 312 310 330 334 14 34 7 329 108 84 318 324 336 344 358 10 16 31 43 42 40 37 32 30 27 24 21 14 10 10 8 7 8 10 14 18 21 27 40 49 60 125 185 203 214 219 220 218 217 217 218 219 221 222 222 224 227 229 231 233 234 236 237 239 239 237 237 237 237 236 237 237
157 149 178 174 144 185 177 357 338 331 300 262 220 35 2 30 30 15 50 42 10 9 45 9 331 343 345 351 3 357 355 23 49 48 44 40 35 28 20 19 17 10 9 11 8 6 6 4 5 10 14 19 23 27 38 68 121 170 198 212 220 223 223 223 222 222 223 224 223 225 227 230 233 235 237 238 238 239 239 238 238 238 237 236 236 235
189 163 227 186 148 190 130 48 348 260 248 268 19 40 9 37 49 63 91 61 25 17 9 353 352 349 341 344 352 349 341 4 57 52 41 37 32 24 16 13 8 2 3 8 7 5 3 2 1 1 3 9 12 11 17 73 107 141 180 199 209 217 224 228 229 228 228 228 229 230 230 232 235 237 239 239 239 239 240 241 241 239 238 236 235 235
99 149 271 208 186 218 114 112 227 244 283 306 313 341 11 16 21 52 85 45 17 10 356 342 342 343 345 344 344 347 341 323 106 55 32 26 22 16 11 8 2 357 357 360 2 1 359 359 358 356 353 356 1 4 6 59 114 139 172 189 198 207 218 226 231 233 233 234 234 235 234 234 235 237 238 238 239 239 240 242 243 241 239 236 235 235
97 139 318 252 208 202 167 188 245 293 305 297 289 349 40 7 342 344 210 277 356 0 348 345 341 342 350 347 343 346 345 329 193 68 16 13 10 4 2 359 356 355 353 350 350 352 352 351 352 351 347 346 352 360 2 353 180 175 183 190 195 202 213 224 228 232 236 237 238 238 236 235 234 235 237 237 238 240 242 243 244 243 240 237 235 235
54 176 178 186 197 182 186 224 276 285 277 258 233 358 14 354 328 301 241 234 352 351 342 345 344 339 348 352 349 348 348 342 194 316 353 356 356 354 354 352 349 350 351 346 341 341 343 344 345 346 345 341 342 351 355 343 276 245 232 212 203 206 218 227 229 232 235 237 239 240 238 236 234 236 237 237 238 241 242 243 243 243 241 238 236 235
337 200 148 166 215 172 177 216 240 243 249 236 236 310 351 349 333 314 264 219 353 342 337 336 334 334 339 349 353 355 356 346 256 318 338 343 345 346 347 348 345 343 346 346 340 336 337 339 340 340 341 339 336 339 345 341 313 277 264 250 229 222 226 233 235 238 240 241 242 241 241 240 240 239 239 239 240 240 241 242 243 242 242 241 239 236
0 33 88 168 232 229 220 229 234 242 253 220 262 315 331 342 356 5 246 238 333 335 335 336 333 333 334 339 350 4 14 316 301 314 323 329 335 339 339 342 342 338 339 341 338 333 333 336 337 337 338 342 340 336 335 333 324 306 288 273 258 247 241 240 240 243 246 248 247 245 244 246 247 244 241 240 240 240 240 241 242 241 241 242 240 237
349 8 112 192 232 239 233 235 254 264 251 331 331 324 319 325 23 131 219 267 320 320 333 345 341 338 336 336 340 334 309 309 308 311 316 320 326 331 331 332 335 334 333 335 335 334 332 332 336 337 337 341 340 335 331 328 322 315 304 288 270 261 255 251 247 245 244 246 247 248 249 251 251 248 244 242 241 240 240 241 241 241 242 242 240 236
327 301 239 185 243 257 233 228 260 259 195 358 337 332 325 291 190 230 305 335 322 314 332 345 339 337 333 328 326 318 313 314 312 312 315 318 321 324 324 324 327 329 330 329 331 335 332 329 333 336 337 339 339 336 333 328 321 315 308 295 279 269 263 258 254 250 246 244 244 246 250 254 254 251 246 242 240 239 240 240 241 241 241 241 238 236
185 193 264 216 216 260 247 246 255 248 337 352 347 353 20 242 279 322 337 339 329 329 341 340 336 336 328 320 318 315 313 314 313 313 315 316 317 319 318 318 321 325 326 324 324 329 330 328 331 336 339 341 340 337 334 329 322 314 307 298 291 282 272 263 260 256 251 246 243 244 247 251 254 253 248 243 240 239 240 240 239 239 239 239 237 235
185 167 190 232 202 158 206 228 205 212 290 324 328 284 278 302 321 336 339 334 332 335 334 329 327 327 321 315 312 310 308 309 310 312 313 314 315 316 314 313 315 320 322 320 319 322 325 326 329 334 339 342 340 336 333 329 323 315 307 302 299 293 281 270 265 261 256 250 247 246 246 247 251 253 249 246 242 240 239 238 236 236 236 236 236 234
206 186 170 199 213 196 220 243 260 270 281 300 296 275 281 299 311 323 328 325 323 323 321 319 318 315 313 311 307 305 304 304 307 308 309 309 310 310 310 311 311 313 316 317 317 319 320 322 327 332 336 340 341 335 329 327 323 317 311 307 304 299 290 281 272 263 257 253 250 248 247 248 249 250 250 247 243 239 237 235 232 231 232 233 233 232
196 176 139 138 239 271 261 259 267 272 277 300 306 274 272 301 313 319 323 319 315 314 313 313 313 310 308 307 303 302 301 301 302 304 304 305 306 306 308 309 308 307 309 312 316 319 318 318 324 330 333 338 340 334 327 325 322 316 312 309 306 302 296 288 278 267 258 254 252 249 248 249 250 249 249 247 243 239 237 234 230 228 229 230 231 232
193 177 158 164 243 313 282 258 250 250 288 307 306 277 278 309 313 313 313 310 308 307 306 307 308 306 303 299 297 298 298 298 299 299 300 301 301 301 304 305 304 303 304 305 311 316 316 315 321 330 334 337 339 334 327 324 320 314 308 305 304 302 296 288 282 273 262 257 256 253 250 250 251 250 248 245 242 239 236 232 229 228 227 228 229 231
180 173 186 218 206 206 247 259 261 280 300 301 280 270 310 319 312 308 308 306 305 303 301 301 302 300 298 296 294 294 294 295 295 295 297 297 296 297 298 299 299 299 299 300 304 310 313 313 317 327 333 335 336 335 330 325 321 314 305 300 299 297 292 287 285 278 268 262 261 258 253 251 252 253 250 243 239 237 233 230 227 226 228 230 230 230
151 155 190 199 207 246 265 271 275 292 305 288 245 273 307 311 306 307 308 306 305 303 302 301 300 297 296 295 293 293 292 293 293 293 293 292 292 293 293 293 294 294 295 296 300 305 309 310 312 321 329 332 334 333 330 327 324 316 305 297 295 294 289 285 282 276 269 265 265 263 257 251 251 254 251 242 236 235 235 233 231 230 231 233 234 234
154 169 194 170 216 266 246 244 255 272 285 277 276 292 302 301 301 305 305 303 302 302 302 302 300 297 294 290 289 290 289 290 292 292 290 289 289 290 291 292 292 291 290 292 296 301 305 306 308 315 323 330 334 333 331 331 329 320 306 295 292 292 289 286 282 276 268 265 266 266 259 251 249 251 248 239 234 232 230 229 230 231 231 232 233 235
194 207 191 177 215 244 239 248 256 248 255 272 287 296 297 296 299 300 298 298 298 299 302 301 298 296 295 291 288 286 286 288 290 289 288 287 287 288 289 289 288 288 288 289 293 297 301 303 305 311 320 329 335 337 337 336 331 321 308 296 291 289 287 285 284 279 272 267 268 267 260 252 250 250 246 238 232 228 225 225 228 230 231 233 233 233
Height
1493 1499 1501 1501 1500 1499 1497 1498 1499 1499 1500 1501 1503 1504 1502 1502 1499 1491 1488 1482 1482 1493 1495 1491 1494 1498 1498 1496 1494 1497 1500 1502 1505 1507 1508 1509 1511 1514 1517 1519 1522 1524 1527 1530 1533 1535 1537 1538 1540 1542 1543 1545 1547 1548 1550 1552 1554 1556 1558 1561 1563 1565 1567 1568 1570 1571 1573 1574 1576 1578 1579 1580 1582 1584 1585 1587 1588 1589 1589 1590 1591 1591 1592 1592 1593 1593
1494 1501 1501 1497 1496 1495 1494 1495 1496 1497 1499 1501 1503 1504 1502 1500 1496 1487 1483 1480 1477 1487 1490 1486 1492 1496 1493 1493 1493 1495 1498 1498 1499 1501 1503 1505 1507 1510 1513 1516 1519 1522 1526 1529 1531 1533 1535 1536 1537 1540 1541 1543 1544 1546 1548 1550 1552 1555 1557 1559 1561 1563 1565 1567 1569 1570 1571 1573 1574 1576 1578 1580 1581 1583 1584 1586 1587 1588 1589 1590 1590 1591 1592 1592 1593 1593
1499 1501 1497 1493 1492 1492 1493 1493 1494 1496 1498 1500 1502 1503 1503 1497 1492 1485 1479 1477 1475 1481 1487 1485 1489 1493 1489 1489 1491 1490 1491 1493 1494 1496 1499 1502 1505 1507 1509 1512 1516 1519 1523 1525 1527 1530 1532 1534 1535 1537 1539 1540 1542 1544 1547 1549 1551 1553 1556 1558 1560 1561 1563 1566 1567 1569 1570 1572 1574 1576 1578 1579 1581 1582 1584 1585 1587 1588 1588 1589 1590 1591 1591 1592 1592 1593
1503 1498 1491 1489 1489 1491 1493 1492 1493 1496 1497 1499 1500 1503 1502 1493 1494 1491 1481 1477 1474 1475 1481 1483 1488 1493 1493 1494 1493 1491 1491 1492 1495 1497 1500 1502 1503 1504 1505 1508 1511 1514 1517 1520 1524 1527 1530 1531 1532 1534 1536 1538 1540 1542 1544 1547 1549 1551 1553 1556 1558 1560 1562 1564 1566 1568 1570 1572 1574 1576 1578 1579 1581 1582 1584 1585 1586 1587 1588 1589 1589 1590 1591 1592 1592 1593
1498 1490 1484 1486 1488 1489 1493 1492 1493 1497 1498 1497 1495 1497 1496 1489 1490 1490 1482 1478 1474 1473 1475 1482 1499 1504 1500 1501 1498 1494 1496 1496 1497 1498 1501 1502 1502 1504 1505 1506 1507 1509 1512 1515 1519 1523 1526 1528 1529 1531 1534 1536 1538 1540 1541 1543 1546 1548 1551 1554 1556 1558 1560 1562 1565 1567 1569 1571 1573 1575 1577 1579 1580 1581 1582 1583 1584 1585 1586 1587 1589 1590 1590 1591 1592 1593
1491 1483 1481 1487 1488 1489 1492 1492 1491 1493 1497 1496 1491 1487 1487 1485 1484 1483 1482 1480 1484 1491 1484 1485 1512 1519 1503 1501 1499 1495 1497 1497 1496 1497 1498 1500 1502 1503 1505 1505 1506 1507 1509 1511 1514 1518 1522 1524 1527 1529 1531 1533 1535 1537 1539 1541 1543 1546 1549 1552 1555 1557 1559 1561 1563 1566 1568 1569 1571 1573 1574 1576 1577 1578 1579 1580 1582 1583 1585 1586 1588 1589 1590 1591 1592 1592
1484 1479 1479 1484 1487 1488 1491 1491 1487 1488 1495 1497 1486 1478 1479 1480 1481 1481 1483 1484 1490 1498 1488 1482 1505 1520 1510 1504 1499 1495 1496 1496 1495 1495 1495 1498 1500 1501 1502 1503 1504 1505 1507 1510 1512 1516 1519 1522 1524 1526 1528 1530 1532 1535 1538 1540 1542 1544 1547 1550 1553 1555 1557 1560 1562 1564 1566 1567 1569 1571 1572 1573 1575 1576 1577 1579 1581 1582 1584 1586 1587 1588 1589 1590 1591 1592
1478 1477 1479 1481 1484 1487 1490 1490 1483 1482 1492 1493 1478 1473 1477 1477 1479 1479 1480 1485 1485 1485 1486 1482 1490 1511 1516 1504 1494 1495 1499 1500 1497 1495 1494 1494 1496 1497 1498 1500 1501 1503 1504 1507 1510 1513 1515 1518 1520 1522 1524 1527 1530 1533 1536 1538 1540 1542 1545 1548 1551 1554 1556 1558 1560 1562 1564 1566 1567 1570 1571 1573 1574 1575 1577 1578 1580 1582 1584 1585 1586 1587 1588 1589 1590 1591
1475 1477 1479 1479 1483 1486 1486 1483 1477 1477 1486 1483 1471 1471 1475 1475 1476 1476 1478 1483 1482 1483 1491 1487 1485 1508 1517 1498 1490 1497 1501 1503 1498 1493 1492 1490 1491 1493 1495 1497 1499 1500 1502 1504 1506 1509 1511 1514 1517 1519 1522 1525 1528 1531 1534 1536 1538 1540 1543 1546 1549 1552 1554 1556 1558 1560 1562 1564 1566 1568 1570 1571 1573 1575 1577 1578 1580 1582 1583 1584 1585 1586 1587 1588 1589 1590
1475 1475 1474 1476 1480 1481 1478 1474 1471 1475 1480 1474 1469 1470 1473 1475 1475 1476 1480 1481 1482 1489 1494 1489 1484 1501 1513 1499 1494 1502 1502 1500 1495 1488 1486 1483 1485 1488 1490 1494 1496 1498 1501 1502 1504 1507 1509 1512 1515 1518 1521 1524 1526 1528 1532 1534 1536 1539 1541 1544 1547 1549 1552 1554 1557 1558 1560 1563 1565 1567 1568 1570 1572 1574 1576 1577 1579 1580 1581 1582 1584 1584 1586 1587 1588 1589
1474 1471 1469 1471 1473 1471 1469 1468 1466 1470 1472 1468 1470 1473 1475 1479 1477 1478 1481 1480 1491 1498 1492 1487 1483 1489 1505 1503 1495 1495 1491 1487 1485 1484 1482 1480 1483 1487 1488 1491 1493 1495 1497 1500 1503 1505 1508 1511 1514 1517 1519 1521 1524 1527 1530 1532 1534 1537 1539 1541 1544 1547 1550 1552 1555 1557 1558 1561 1562 1565 1567 1568 1570 1572 1574 1576 1577 1579 1580 1581 1582 1583 1584 1586 1587 1588
1472 1471 1470 1467 1466 1465 1465 1467 1465 1464 1466 1468 1474 1477 1481 1486 1483 1485 1487 1487 1504 1508 1489 1483 1482 1485 1500 1499 1489 1483 1475 1473 1476 1477 1477 1477 1479 1481 1484 1487 1489 1492 1494 1497 1501 1503 1506 1509 1512 1514 1516 1519 1522 1524 1527 1529 1531 1534 1536 1538 1542 1544 1548 1550 1552 1555 1556 1558 1560 1562 1565 1567 1569 1571 1573 1574 1575 1576 1578 1579 1581 1582 1583 1584 1586 1587
1474 1472 1471 1466 1463 1464 1467 1471 1470 1466 1466 1471 1476 1480 1490 1500 1501 1503 1504 1502 1509 1504 1484 1480 1484 1489 1494 1486 1479 1477 1471 1469 1469 1468 1470 1471 1473 1476 1479 1482 1485 1488 1492 1494 1497 1500 1502 1505 1507 1510 1513 1515 1518 1520 1523 1526 1528 1530 1533 1535 1538 1541 1544 1547 1550 1552 1554 1556 1558 1560 1563 1565 1567 1569 1571 1572 1574 1575 1576 1578 1579 1580 1581 1583 1584 1585
1482 1475 1472 1470 1467 1465 1468 1473 1476 1473 1471 1474 1478 1483 1495 1507 1516 1520 1517 1513 1510 1498 1482 1477 1483 1493 1491 1477 1472 1471 1467 1466 1465 1465 1467 1467 1468 1471 1473 1477 1482 1485 1488 1490 1494 1497 1499 1501 1503 1506 1509 1511 1514 1516 1519 1522 1525 1527 1530 1532 1535 1538 1541 1544 1547 1550 1552 1554 1556 1558 1560 1563 1565 1567 1569 1571 1572 1573 1574 1576 1577 1579 1580 1581 1582 1583
1497 1491 1481 1479 1476 1471 1469 1473 1475 1473 1473 1475 1473 1478 1489 1497 1509 1517 1514 1513 1511 1500 1487 1482 1488 1495 1489 1473 1464 1462 1460 1461 1462 1463 1464 1465 1466 1468 1470 1475 1480 1483 1485 1487 1490 1493 1496 1498 1501 1503 1506 1508 1510 1513 1516 1519 1522 1524 1526 1529 1531 1535 1538 1541 1544 1547 1550 1552 1554 1556 1558 1561 1563 1565 1567 1569 1571 1572 1573 1575 1576 1577 1579 1580 1581 1582
1503 1499 1485 1479 1478 1474 1473 1472 1469 1471 1477 1477 1471 1477 1486 1484 1490 1500 1502 1500 1501 1504 1500 1492 1491 1486 1476 1464 1456 1455 1457 1456 1457 1457 1459 1462 1463 1466 1472 1474 1477 1480 1482 1484 1487 1489 1492 1495 1498 1500 1502 1505 1507 1511 1513 1516 1518 1520 1522 1525 1528 1531 1534 1538 1541 1544 1547 1549 1552 1554 1556 1558 1561 1563 1565 1567 1569 1571 1572 1573 1575 1576 1577 1579 1580 1582
1505 1497 1483 1478 1475 1473 1476 1474 1470 1475 1479 1477 1476 1481 1480 1474 1478 1492 1498 1492 1496 1511 1508 1494 1491 1483 1475 1469 1458 1455 1457 1454 1455 1455 1453 1455 1458 1463 1468 1469 1472 1474 1476 1479 1481 1483 1487 1490 1494 1497 1499 1501 1504 1507 1509 1511 1514 1516 1519 1522 1525 1529 1531 1534 1537 1540 1544 1547 1549 1552 1554 1556 1558 1560 1562 1564 1567 1569 1570 1572 1573 1575 1576 1578 1579 1581
1504 1499 1486 1482 1481 1477 1475 1472 1470 1474 1478 1481 1486 1483 1474 1474 1477 1487 1501 1502 1506 1518 1508 1494 1495 1491 1487 1484 1469 1462 1464 1460 1459 1457 1451 1451 1455 1458 1461 1463 1466 1468 1470 1474 1476 1479 1483 1487 1491 1494 1496 1498 1500 1503 1505 1508 1511 1514 1516 1519 1522 1525 1528 1531 1534 1537 1541 1544 1546 1549 1551 1554 1556 1558 1560 1562 1565 1567 1569 1570 1572 1573 1575 1576 1578 1580
1502 1502 1491 1484 1487 1484 1475 1474 1478 1477 1478 1485 1488 1480 1478 1488 1490 1491 1501 1508 1514 1521 1511 1497 1495 1493 1494 1494 1484 1479 1476 1469 1464 1460 1453 1450 1451 1453 1456 1458 1461 1464 1468 1472 1475 1479 1482 1484 1488 1491 1493 1496 1498 1501 1503 1506 1509 1512 1514 1517 1519 1523 1525 1528 1532 1535 1538 1540 1543 1546 1548 1551 1553 1555 1558 1560 1563 1565 1567 1568 1570 1571 1573 1575 1577 1578
1502 1506 1500 1487 1488 1488 1482 1487 1498 1496 1486 1482 1483 1481 1482 1489 1493 1494 1495 1499 1507 1516 1515 1505 1500 1500 1501 1497 1491 1487 1480 1473 1467 1460 1453 1448 1446 1448 1450 1453 1457 1461 1466 1469 1472 1476 1478 1481 1484 1487 1490 1493 1495 1499 1501 1504 1507 1509 1512 1515 1517 1521 1524 1527 1529 1532 1535 1537 1540 1543 1545 1548 1550 1553 1555 1558 1560 1563 1564 1566 1568 1569 1571 1573 1575 1576
1504 1510 1509 1495 1489 1492 1497 1501 1506 1505 1498 1493 1495 1498 1496 1492 1491 1493 1490 1489 1496 1506 1513 1510 1508 1510 1503 1492 1489 1487 1481 1474 1468 1461 1453 1445 1442 1443 1445 1448 1453 1456 1460 1464 1468 1472 1474 1478 1481 1485 1488 1491 1493 1497 1499 1502 1505 1507 1510 1512 1514 1518 1521 1524 1526 1529 1532 1535 1537 1540 1542 1545 1547 1550 1553 1555 1558 1560 1562 1564 1566 1567 1569 1571 1573 1574
1510 1514 1515 1509 1502 1502 1507 1504 1499 1500 1500 1501 1506 1509 1509 1503 1501 1504 1502 1495 1492 1497 1502 1502 1507 1512 1501 1487 1487 1485 1479 1474 1467 1463 1457 1448 1442 1442 1442 1444 1448 1452 1456 1459 1463 1467 1471 1475 1479 1482 1486 1489 1492 1495 1497 1500 1502 1504 1507 1509 1512 1515 1517 1520 1523 1526 1529 1532 1535 1537 1539 1542 1545 1547 1550 1552 1554 1556 1559 1561 1563 1565 1567 1569 1570 1572
1512 1516 1519 1517 1509 1505 1505 1501 1499 1499 1497 1500 1508 1511 1510 1508 1510 1518 1518 1509 1503 1501 1498 1496 1502 1508 1498 1486 1484 1483 1479 1476 1470 1466 1462 1455 1448 1445 1444 1445 1446 1448 1452 1455 1459 1463 1467 1471 1476 1480 1484 1487 1489 1492 1494 1497 1499 1501 1504 1506 1509 1511 1514 1517 1520 1523 1526 1529 1532 1535 1538 1540 1542 1544 1547 1549 1551 1553 1555 1558 1560 1563 1564 1566 1568 1569
1513 1519 1522 1518 1507 1498 1496 1496 1497 1498 1500 1508 1515 1513 1513 1513 1514 1517 1516 1512 1511 1511 1510 1510 1508 1504 1494 1485 1483 1481 1479 1476 1473 1470 1466 1461 1455 1451 1450 1450 1450 1450 1451 1453 1457 1460 1464 1469 1475 1479 1482 1485 1487 1490 1492 1494 1496 1499 1502 1504 1506 1508 1511 1515 1518 1521 1524 1526 1529 1532 1536 1538 1540 1542 1543 1545 1547 1550 1552 1555 1557 1559 1561 1563 1565 1566
1519 1524 1526 1524 1517 1505 1497 1500 1504 1504 1509 1519 1522 1519 1517 1515 1514 1512 1510 1511 1514 1516 1518 1520 1515 1507 1496 1487 1482 1481 1479 1477 1476 1475 1471 1466 1463 1459 1455 1454 1456 1456 1457 1457 1458 1460 1464 1468 1472 1477 1480 1482 1485 1487 1489 1492 1494 1497 1499 1501 1503 1505 1509 1512 1515 1519 1521 1524 1526 1529 1532 1534 1537 1539 1540 1541 1544 1546 1549 1552 1554 1556 1558 1559 1561 1563
1523 1527 1528 1532 1536 1529 1523 1526 1527 1523 1521 1522 1523 1522 1520 1517 1517 1518 1518 1519 1520 1519 1519 1520 1518 1510 1498 1489 1485 1483 1482 1480 1478 1478 1475 1471 1470 1468 1463 1461 1461 1461 1462 1464 1464 1465 1467 1469 1471 1473 1476 1479 1482 1485 1487 1489 1491 1494 1496 1499 1501 1503 1506 1509 1512 1515 1518 1521 1524 1526 1528 1530 1533 1535 1537 1539 1541 1543 1546 1548 1551 1553 1554 1556 1558 1560
1525 1529 1530 1533 1538 1539 1538 1536 1532 1529 1527 1523 1522 1522 1522 1520 1518 1520 1524 1525 1523 1523 1521 1516 1514 1510 1500 1493 1491 1487 1486 1485 1482 1481 1479 1476 1475 1474 1471 1470 1468 1466 1465 1465 1466 1469 1472 1473 1474 1475 1475 1477 1479 1481 1483 1486 1488 1491 1493 1496 1498 1501 1504 1506 1510 1512 1515 1518 1520 1522 1524 1526 1528 1530 1533 1536 1538 1540 1543 1545 1547 1549 1551 1553 1555 1556
1530 1534 1533 1533 1535 1535 1534 1533 1528 1528 1528 1525 1520 1520 1522 1522 1519 1521 1527 1525 1522 1527 1524 1511 1508 1511 1504 1498 1497 1493 1490 1489 1487 1486 1484 1481 1481 1480 1476 1475 1473 1471 1468 1466 1467 1470 1471 1474 1477 1478 1479 1480 1480 1481 1482 1484 1486 1487 1489 1492 1495 1498 1500 1503 1506 1509 1511 1514 1516 1518 1520 1522 1524 1527 1529 1533 1535 1538 1540 1541 1543 1545 1548 1550 1551 1553
1533 1537 1534 1534 1536 1534 1532 1532 1530 1529 1528 1525 1522 1518 1518 1521 1522 1523 1524 1521 1520 1526 1522 1509 1507 1510 1505 1501 1499 1496 1493 1491 1490 1490 1487 1484 1485 1483 1478 1477 1477 1477 1474 1472 1472 1472 1472 1473 1475 1477 1480 1482 1484 1485 1486 1487 1488 1488 1489 1491 1494 1496 1498 1500 1503 1505 1508 1510 1511 1513 1516 1519 1521 1524 1526 1529 1532 1534 1536 1537 1540 1542 1544 1546 1547 1549
1534 1536 1534 1534 1536 1536 1534 1533 1531 1530 1528 1526 1524 1520 1516 1517 1518 1519 1519 1517 1516 1516 1512 1508 1508 1508 1506 1504 1500 1497 1496 1494 1491 1489 1486 1487 1489 1486 1481 1480 1482 1483 1481 1479 1477 1476 1475 1476 1476 1476 1477 1478 1481 1484 1486 1489 1490 1491 1491 1492 1494 1496 1497 1498 1500 1502 1504 1506 1507 1510 1513 1516 1518 1520 1523 1525 1527 1529 1531 1533 1536 1538 1540 1542 1544 1546
1534 1536 1534 1534 1538 1538 1535 1533 1532 1531 1529 1527 1525 1523 1519 1516 1515 1515 1515 1513 1513 1512 1509 1508 1509 1508 1506 1504 1502 1500 1499 1495 1492 1491 1490 1491 1493 1489 1485 1484 1486 1487 1486 1484 1482 1479 1478 1477 1477 1477 1476 1477 1478 1480 1482 1485 1487 1489 1491 1492 1494 1496 1497 1498 1499 1500 1502 1503 1504 1507 1510 1512 1514 1516 1518 1520 1522 1524 1526 1529 1531 1533 1535 1538 1540 1542
1534 1537 1534 1536 1543 1542 1536 1535 1534 1531 1529 1528 1526 1523 1521 1517 1515 1513 1512 1512 1513 1514 1511 1509 1511 1511 1508 1505 1504 1502 1499 1497 1496 1495 1493 1494 1494 1492 1489 1488 1489 1489 1488 1486 1484 1482 1480 1479 1478 1478 1477 1477 1477 1478 1479 1481 1482 1485 1488 1490 1492 1494 1495 1497 1497 1498 1499 1499 1501 1504 1505 1507 1510 1511 1513 1515 1517 1519 1521 1524 1527 1529 1531 1534 1536 1539
1534 1537 1537 1539 1545 1544 1538 1536 1535 1534 1535 1532 1524 1521 1519 1518 1517 1514 1513 1515 1515 1513 1513 1513 1514 1513 1510 1507 1506 1504 1502 1501 1501 1499 1497 1495 1494 1492 1492 1491 1491 1492 1491 1488 1486 1485 1483 1482 1481 1480 1478 1477 1476 1476 1477 1478 1479 1480 1482 1486 1490 1491 1492 1492 1492 1493 1494 1496 1498 1500 1502 1504 1506 1507 1509 1510 1512 1515 1517 1520 1522 1524 1527 1529 1532 1535
1534 1536 1537 1537 1542 1544 1540 1536 1537 1544 1544 1531 1518 1516 1518 1517 1518 1518 1519 1519 1517 1514 1514 1514 1514 1513 1510 1508 1508 1507 1506 1505 1504 1503 1502 1499 1496 1495 1495 1495 1494 1493 1491 1489 1487 1486 1485 1484 1482 1481 1479 1478 1476 1475 1476 1477 1477 1477 1479 1483 1488 1490 1490 1490 1491 1492 1493 1495 1497 1499 1501 1503 1503 1504 1506 1507 1509 1512 1513 1515 1517 1519 1523 1525 1529 1531
1534 1536 1536 1535 1539 1542 1539 1540 1548 1549 1537 1521 1515 1516 1516 1515 1516 1518 1520 1520 1518 1516 1515 1514 1513 1512 1509 1508 1508 1508 1508 1507 1506 1504 1503 1503 1501 1500 1499 1498 1496 1494 1491 1488 1487 1487 1487 1486 1484 1482 1480 1478 1476 1475 1475 1475 1475 1476 1478 1481 1484 1487 1488 1489 1489 1491 1492 1493 1495 1497 1499 1500 1501 1502 1503 1505 1507 1508 1509 1511 1513 1515 1518 1521 1524 1527
1535 1537 1536 1536 1538 1540 1542 1546 1548 1537 1523 1516 1516 1516 1516 1516 1517 1518 1520 1520 1519 1517 1516 1516 1514 1512 1509 1507 1505 1505 1505 1505 1504 1503 1502 1503 1503 1502 1501 1499 1497 1494 1490 1487 1486 1486 1485 1486 1485 1484 1480 1478 1477 1475 1473 1473 1474 1475 1477 1479 1480 1483 1485 1487 1487 1488 1489 1490 1491 1492 1494 1495 1496 1498 1499 1501 1503 1504 1506 1507 1508 1511 1514 1517 1520 1523
1535 1537 1538 1538 1538 1539 1543 1544 1538 1530 1524 1520 1517 1517 1519 1520 1519 1520 1521 1520 1519 1517 1516 1515 1514 1512 1510 1507 1504 1502 1500 1499 1501 1501 1500 1501 1502 1501 1500 1499 1497 1493 1489 1487 1486 1485 1484 1484 1484 1483 1481 1478 1476 1473 1471 1471 1471 1472 1474 1476 1477 1479 1481 1484 1485 1486 1487 1487 1488 1489 1490 1491 1492 1494 1495 1497 1499 1499 1501 1503 1505 1507 1511 1513 1516 1519
1535 1536 1537 1540 1538 1537 1541 1543 1541 1539 1532 1522 1518 1519 1519 1519 1518 1518 1519 1519 1518 1517 1516 1515 1513 1511 1510 1509 1507 1503 1499 1497 1499 1500 1500 1500 1501 1500 1499 1497 1495 1493 1490 1489 1488 1485 1484 1484 1483 1482 1481 1478 1475 1473 1472 1471 1470 1470 1471 1473 1473 1474 1477 1479 1481 1483 1484 1485 1485 1486 1487 1488 1490 1491 1492 1493 1494 1494 1497 1499 1501 1504 1506 1509 1512 1514
1535 1535 1536 1539 1540 1539 1542 1544 1543 1539 1529 1519 1518 1519 1518 1518 1516 1515 1519 1520 1517 1515 1515 1514 1512 1511 1509 1509 1508 1506 1504 1503 1501 1500 1500 1500 1500 1499 1499 1497 1494 1492 1491 1491 1490 1487 1485 1484 1482 1481 1480 1478 1476 1474 1472 1471 1470 1469 1469 1470 1470 1471 1473 1475 1478 1479 1481 1482 1483 1484 1485 1486 1487 1487 1489 1489 1489 1491 1493 1496 1498 1501 1503 1505 1508 1511
1536 1536 1538 1541 1542 1540 1540 1540 1537 1530 1522 1519 1520 1519 1518 1516 1514 1517 1523 1521 1515 1514 1515 1513 1512 1511 1509 1508 1508 1508 1508 1508 1504 1500 1500 1501 1500 1499 1499 1497 1496 1494 1492 1491 1490 1488 1486 1484 1483 1481 1479 1477 1474 1472 1471 1469 1468 1467 1466 1467 1468 1468 1470 1472 1474 1475 1476 1477 1478 1480 1480 1482 1482 1483 1484 1485 1486 1488 1491 1493 1496 1498 1500 1502 1504 1507
1540 1541 1541 1542 1542 1541 1539 1539 1534 1525 1521 1521 1520 1518 1517 1516 1516 1521 1523 1517 1513 1514 1514 1512 1512 1511 1508 1508 1507 1507 1508 1508 1505 1502 1500 1500 1499 1498 1497 1497 1496 1495 1494 1492 1489 1487 1486 1485 1484 1482 1479 1476 1474 1471 1469 1467 1466 1465 1464 1464 1465 1466 1468 1469 1469 1470 1471 1472 1473 1473 1474 1475 1477 1478 1479 1480 1483 1485 1488 1490 1492 1495 1496 1498 1501 1504
1544 1543 1541 1540 1541 1540 1537 1537 1533 1525 1521 1521 1519 1517 1516 1518 1519 1520 1517 1513 1513 1514 1512 1512 1512 1510 1508 1507 1505 1505 1505 1505 1503 1501 1499 1498 1498 1497 1496 1495 1494 1493 1493 1492 1490 1488 1485 1484 1483 1482 1479 1476 1473 1470 1467 1466 1465 1464 1464 1464 1464 1465 1465 1465 1465 1466 1467 1467 1467 1468 1468 1470 1471 1473 1474 1476 1479 1482 1484 1486 1489 1491 1493 1495 1497 1500
1542 1544 1543 1540 1539 1539 1537 1536 1533 1527 1522 1520 1519 1518 1517 1518 1518 1516 1513 1513 1513 1512 1512 1512 1511 1510 1508 1506 1504 1502 1501 1501 1501 1500 1497 1497 1496 1495 1494 1493 1492 1491 1490 1489 1488 1487 1485 1483 1482 1481 1478 1474 1472 1469 1467 1465 1464 1463 1463 1462 1462 1463 1462 1462 1462 1462 1463 1463 1463 1464 1464 1465 1467 1468 1470 1473 1475 1477 1480 1482 1485 1487 1490 1492 1494 1496
1539 1541 1543 1539 1536 1538 1538 1533 1527 1524 1522 1520 1520 1520 1518 1517 1516 1515 1513 1513 1511 1511 1511 1510 1509 1509 1508 1505 1503 1500 1498 1498 1498 1498 1496 1494 1493 1493 1492 1490 1489 1488 1487 1486 1484 1483 1482 1480 1479 1478 1476 1473 1470 1467 1466 1465 1464 1463 1461 1460 1459 1459 1458 1458 1458 1458 1458 1459 1459 1460 1461 1462 1463 1465 1466 1468 1471 1473 1475 1478 1480 1483 1486 1489 1491 1493
1534 1534 1536 1535 1533 1533 1531 1525 1521 1520 1521 1520 1520 1519 1517 1516 1515 1514 1513 1512 1511 1510 1510 1509 1508 1507 1506 1504 1502 1499 1496 1495 1494 1494 1494 1492 1491 1490 1488 1486 1485 1484 1483 1482 1480 1479 1479 1477 1476 1474 1472 1470 1467 1465 1464 1464 1463 1461 1460 1458 1457 1456 1454 1454 1454 1454 1454 1455 1455 1456 1457 1458 1459 1460 1462 1464 1466 1468 1470 1473 1476 1479 1482 1485 1487 1489
1529 1530 1531 1532 1531 1529 1525 1520 1519 1520 1520 1519 1519 1518 1516 1515 1514 1513 1512 1511 1510 1509 1508 1508 1507 1505 1504 1503 1501 1497 1495 1494 1491 1491 1491 1490 1489 1487 1486 1483 1481 1479 1479 1478 1477 1476 1476 1474 1472 1469 1466 1464 1464 1462 1461 1462 1461 1460 1458 1456 1454 1453 1451 1450 1450 1449 1450 1450 1451 1452 1453 1454 1455 1456 1458 1460 1462 1464 1465 1468 1471 1474 1478 1481 1483 1485
1528 1529 1530 1530 1530 1529 1524 1520 1519 1520 1519 1519 1518 1517 1515 1514 1513 1512 1511 1510 1509 1508 1507 1506 1505 1503 1502 1501 1499 1496 1494 1492 1490 1488 1487 1487 1487 1485 1484 1482 1479 1476 1476 1475 1475 1474 1473 1471 1469 1465 1461 1460 1461 1460 1458 1458 1458 1457 1456 1453 1452 1450 1448 1446 1445 1445 1445 1446 1446 1448 1449 1450 1451 1452 1454 1456 1458 1460 1462 1465 1467 1470 1473 1475 1477 1480
1526 1527 1528 1527 1527 1527 1523 1519 1518 1519 1518 1517 1516 1516 1515 1513 1512 1511 1510 1509 1507 1505 1504 1503 1503 1501 1500 1498 1497 1494 1491 1489 1489 1487 1484 1484 1484 1483 1482 1481 1478 1475 1473 1472 1472 1472 1470 1468 1466 1462 1458 1457 1457 1456 1455 1455 1454 1454 1452 1450 1449 1447 1444 1442 1441 1440 1440 1441 1442 1443 1444 1445 1447 1448 1450 1452 1454 1457 1459 1461 1464 1466 1468 1469 1472 1475
1523 1525 1524 1523 1524 1524 1520 1517 1517 1516 1515 1514 1514 1514 1513 1512 1511 1509 1508 1507 1505 1503 1502 1500 1499 1499 1497 1495 1494 1492 1488 1487 1486 1485 1482 1481 1480 1480 1480 1478 1476 1474 1471 1470 1469 1468 1467 1466 1464 1461 1458 1456 1454 1453 1451 1450 1450 1450 1448 1446 1444 1442 1440 1438 1437 1436 1436 1437 1438 1439 1440 1441 1443 1444 1446 1447 1450 1453 1456 1458 1460 1461 1463 1465 1468 1471
1520 1521 1520 1521 1523 1521 1517 1515 1515 1515 1513 1512 1512 1512 1511 1510 1509 1507 1505 1504 1503 1501 1499 1497 1496 1495 1493 1492 1491 1489 1486 1483 1483 1482 1480 1477 1476 1476 1476 1475 1473 1471 1469 1468 1466 1465 1464 1463 1462 1460 1458 1455 1452 1449 1448 1447 1447 1446 1444 1442 1440 1438 1436 1435 1433 1432 1433 1434 1434 1435 1435 1437 1438 1440 1442 1443 1446 1449 1452 1454 1456 1458 1460 1462 1464 1467
1514 1514 1514 1517 1517 1514 1512 1511 1512 1512 1511 1509 1509 1509 1508 1507 1506 1505 1503 1502 1500 1499 1497 1494 1492 1490 1489 1488 1487 1485 1483 1480 1479 1479 1477 1474 1472 1472 1472 1472 1471 1468 1466 1466 1464 1462 1461 1460 1460 1459 1456 1451 1448 1447 1445 1443 1443 1442 1440 1438 1436 1434 1433 1431 1430 1430 1430 1431 1431 1431 1431 1432 1434 1436 1438 1439 1441 1444 1447 1449 1451 1453 1455 1457 1460 1462